Time,TemperatureF,DewpointF,PressureIn,WindDirection,WindDirectionDegrees,WindSpeedMPH,WindSpeedGustMPH,Humidity,HourlyPrecipIn,Conditions,Clouds,dailyrainin,SoftwareType,DateUTC
2015-05-05 00:03:00,61.4,56.9,30.12,SE,127,0.0,0.0,85,0.00,,---,0.00,VWS V13.01,2015-05-05 04:03:00,
2015-05-05 00:08:00,61.3,57.1,30.12,SE,128,0.0,0.0,86,0.00,,---,0.00,VWS V13.01,2015-05-05 04:08:00,
2015-05-05 00:13:00,61.3,57.1,30.12,SE,128,0.0,0.0,86,0.00,,---,0.00,VWS V13.01,2015-05-05 04:13:00,
2015-05-05 00:18:00,61.2,56.7,30.12,SE,127,0.0,0.0,85,0.00,,---,0.00,VWS V13.01,2015-05-05 04:18:00,
2015-05-05 00:23:00,61.1,56.6,30.12,SE,127,0.0,0.0,85,0.00,,---,0.00,VWS V13.01,2015-05-05 04:23:00,
2015-05-05 00:28:00,60.9,56.4,30.12,SE,127,0.0,0.0,85,0.00,,---,0.00,VWS V13.01,2015-05-05 04:28:00,
2015-05-05 00:33:00,60.8,56.3,30.12,SE,127,0.0,0.0,85,0.00,,---,0.00,VWS V13.01,2015-05-05 04:33:00,
2015-05-05 00:38:00,60.5,56.3,30.12,SE,127,0.0,0.0,86,0.00,,---,0.00,VWS V13.01,2015-05-05 04:38:00,
2015-05-05 00:43:00,60.3,55.8,30.12,SE,127,0.0,0.0,85,0.00,,---,0.00,VWS V13.01,2015-05-05 04:43:00,
2015-05-05 00:48:00,60.3,55.8,30.13,SE,127,0.0,0.0,85,0.00,,---,0.00,VWS V13.01,2015-05-05 04:48:00,
2015-05-05 00:53:00,60.3,56.4,30.13,SE,127,0.0,0.0,87,0.00,,---,0.00,VWS V13.01,2015-05-05 04:53:00,
2015-05-05 00:58:00,60.3,56.4,30.12,SE,127,0.0,0.0,87,0.00,,---,0.00,VWS V13.01,2015-05-05 04:58:00,
2015-05-05 01:03:00,60.3,56.1,30.13,SE,127,0.0,0.0,86,0.00,,---,0.00,VWS V13.01,2015-05-05 05:03:00,
2015-05-05 01:08:00,60.2,55.3,30.13,SE,127,0.0,0.0,84,0.00,,---,0.00,VWS V13.01,2015-05-05 05:08:00,
2015-05-05 01:13:00,60.3,55.5,30.13,SE,127,0.0,0.0,84,0.00,,---,0.00,VWS V13.01,2015-05-05 05:13:00,
2015-05-05 01:18:00,60.3,55.5,30.13,SE,127,0.0,0.0,84,0.00,,---,0.00,VWS V13.01,2015-05-05 05:18:00,
2015-05-05 01:23:00,60.1,55.3,30.12,SE,127,0.0,0.0,84,0.00,,---,0.00,VWS V13.01,2015-05-05 05:23:00,
2015-05-05 01:28:00,59.9,55.7,30.12,SE,127,0.0,0.0,86,0.00,,---,0.00,VWS V13.01,2015-05-05 05:28:00,
2015-05-05 01:33:00,59.8,55.9,30.13,SE,127,0.0,0.0,87,0.00,,---,0.00,VWS V13.01,2015-05-05 05:33:00,
2015-05-05 01:38:00,59.6,55.7,30.12,SE,127,0.0,0.0,87,0.00,,---,0.00,VWS V13.01,2015-05-05 05:38:00,
2015-05-05 01:43:00,59.3,55.4,30.13,SE,127,0.0,0.0,87,0.00,,---,0.00,VWS V13.01,2015-05-05 05:43:00,
2015-05-05 01:48:00,59.2,56.0,30.12,SE,127,0.0,0.0,89,0.00,,---,0.00,VWS V13.01,2015-05-05 05:48:00,
2015-05-05 01:53:00,59.1,55.5,30.12,SE,127,0.0,0.0,88,0.00,,---,0.00,VWS V13.01,2015-05-05 05:53:00,
2015-05-05 01:58:00,59.1,55.9,30.12,SE,127,0.0,0.0,89,0.00,,---,0.00,VWS V13.01,2015-05-05 05:58:00,
2015-05-05 02:03:00,58.9,55.7,30.12,SE,127,0.0,0.0,89,0.00,,---,0.00,VWS V13.01,2015-05-05 06:03:00,
2015-05-05 02:08:00,58.7,55.5,30.12,SE,127,0.0,0.0,89,0.00,,---,0.00,VWS V13.01,2015-05-05 06:08:00,
2015-05-05 02:13:00,58.7,55.8,30.12,SE,127,0.0,0.0,90,0.00,,---,0.00,VWS V13.01,2015-05-05 06:13:00,
2015-05-05 02:18:00,58.6,55.7,30.12,SE,127,0.0,0.0,90,0.00,,---,0.00,VWS V13.01,2015-05-05 06:18:00,
2015-05-05 02:23:00,58.5,55.6,30.13,SE,127,0.0,0.0,90,0.00,,---,0.00,VWS V13.01,2015-05-05 06:23:00,
2015-05-05 02:28:00,58.3,55.4,30.12,SE,127,0.0,0.0,90,0.00,,---,0.00,VWS V13.01,2015-05-05 06:28:00,
2015-05-05 02:33:00,58.3,55.4,30.12,SE,127,0.0,0.0,90,0.00,,---,0.00,VWS V13.01,2015-05-05 06:33:00,
2015-05-05 02:38:00,58.4,55.8,30.12,SE,127,0.0,0.0,91,0.00,,---,0.00,VWS V13.01,2015-05-05 06:38:00,
2015-05-05 02:43:00,58.4,55.8,30.12,SE,127,0.0,0.0,91,0.00,,---,0.00,VWS V13.01,2015-05-05 06:43:00,
2015-05-05 02:48:00,58.4,55.8,30.12,SE,127,0.0,0.0,91,0.00,,---,0.00,VWS V13.01,2015-05-05 06:48:00,
2015-05-05 02:53:00,58.4,55.8,30.12,SE,127,0.0,0.0,91,0.00,,---,0.00,VWS V13.01,2015-05-05 06:53:00,
2015-05-05 02:58:00,58.3,55.7,30.12,SE,127,0.0,0.0,91,0.00,,---,0.00,VWS V13.01,2015-05-05 06:58:00,
2015-05-05 03:03:00,58.2,55.6,30.12,SE,127,0.0,0.0,91,0.00,,---,0.00,VWS V13.01,2015-05-05 07:03:00,
2015-05-05 03:08:00,58.0,55.4,30.12,SE,127,0.0,0.0,91,0.00,,---,0.00,VWS V13.01,2015-05-05 07:08:00,
2015-05-05 03:13:00,58.0,55.4,30.12,SE,127,0.0,0.0,91,0.00,,---,0.00,VWS V13.01,2015-05-05 07:13:00,
2015-05-05 03:18:00,58.0,55.4,30.12,SE,127,0.0,0.0,91,0.00,,---,0.00,VWS V13.01,2015-05-05 07:18:00,
2015-05-05 03:23:00,57.9,55.3,30.12,SE,127,0.0,0.0,91,0.00,,---,0.00,VWS V13.01,2015-05-05 07:23:00,
2015-05-05 03:28:00,57.9,55.3,30.12,SE,127,0.0,0.0,91,0.00,,---,0.00,VWS V13.01,2015-05-05 07:28:00,
2015-05-05 03:33:00,57.7,55.1,30.12,SE,127,0.0,0.0,91,0.00,,---,0.00,VWS V13.01,2015-05-05 07:33:00,
2015-05-05 03:38:00,57.6,55.3,30.12,SE,127,0.0,0.0,92,0.00,,---,0.00,VWS V13.01,2015-05-05 07:38:00,
2015-05-05 03:43:00,57.5,54.9,30.12,SE,127,0.0,0.0,91,0.00,,---,0.00,VWS V13.01,2015-05-05 07:43:00,
2015-05-05 03:48:00,57.4,55.1,30.12,SE,127,0.0,0.0,92,0.00,,---,0.00,VWS V13.01,2015-05-05 07:48:00,
2015-05-05 03:53:00,57.2,54.9,30.13,SE,127,0.0,0.0,92,0.00,,---,0.00,VWS V13.01,2015-05-05 07:53:00,
2015-05-05 03:58:00,57.2,54.9,30.13,SE,127,0.0,0.0,92,0.00,,---,0.00,VWS V13.01,2015-05-05 07:58:00,
2015-05-05 04:03:00,57.1,54.8,30.13,SE,127,0.0,0.0,92,0.00,,---,0.00,VWS V13.01,2015-05-05 08:03:00,
2015-05-05 04:08:00,57.1,54.8,30.13,SE,127,0.0,0.0,92,0.00,,---,0.00,VWS V13.01,2015-05-05 08:08:00,
2015-05-05 04:13:00,57.2,54.9,30.13,SE,127,0.0,0.0,92,0.00,,---,0.00,VWS V13.01,2015-05-05 08:13:00,
2015-05-05 04:18:00,57.2,54.9,30.13,SE,127,0.0,0.0,92,0.00,,---,0.00,VWS V13.01,2015-05-05 08:18:00,
2015-05-05 04:23:00,57.2,54.9,30.13,SE,127,0.0,0.0,92,0.00,,---,0.00,VWS V13.01,2015-05-05 08:23:00,
2015-05-05 04:28:00,57.2,55.2,30.13,SE,127,0.0,0.0,93,0.00,,---,0.00,VWS V13.01,2015-05-05 08:28:00,
2015-05-05 04:33:00,57.2,55.2,30.13,SE,127,0.0,0.0,93,0.00,,---,0.00,VWS V13.01,2015-05-05 08:33:00,
2015-05-05 04:38:00,57.2,55.2,30.13,SE,127,0.0,0.0,93,0.00,,---,0.00,VWS V13.01,2015-05-05 08:38:00,
2015-05-05 04:43:00,57.3,55.0,30.13,SE,127,0.0,0.0,92,0.00,,---,0.00,VWS V13.01,2015-05-05 08:43:00,
2015-05-05 04:48:00,57.3,55.0,30.13,SE,127,0.0,0.0,92,0.00,,---,0.00,VWS V13.01,2015-05-05 08:48:00,
2015-05-05 04:53:00,57.2,54.9,30.13,SE,127,0.0,0.0,92,0.00,,---,0.00,VWS V13.01,2015-05-05 08:53:00,
2015-05-05 04:58:00,57.2,54.9,30.13,SE,127,0.0,0.0,92,0.00,,---,0.00,VWS V13.01,2015-05-05 08:58:00,
2015-05-05 05:03:00,57.2,54.9,30.14,SE,127,0.0,0.0,92,0.00,,---,0.00,VWS V13.01,2015-05-05 09:03:00,
2015-05-05 05:08:00,57.0,55.0,30.14,SE,127,0.0,0.0,93,0.00,,---,0.00,VWS V13.01,2015-05-05 09:08:00,
2015-05-05 05:13:00,56.9,54.9,30.14,SE,131,0.0,0.0,93,0.00,,---,0.00,VWS V13.01,2015-05-05 09:13:00,
2015-05-05 05:18:00,56.7,54.7,30.14,SE,131,0.0,0.0,93,0.00,,---,0.00,VWS V13.01,2015-05-05 09:18:00,
2015-05-05 05:23:00,56.7,54.7,30.14,SE,131,0.0,0.0,93,0.00,,---,0.00,VWS V13.01,2015-05-05 09:23:00,
2015-05-05 05:28:00,56.6,54.6,30.15,SE,131,0.0,0.0,93,0.00,,---,0.00,VWS V13.01,2015-05-05 09:28:00,
2015-05-05 05:32:00,56.6,54.3,30.15,ESE,120,0.0,0.0,92,0.00,,---,0.00,VWS V13.01,2015-05-05 09:32:00,
2015-05-05 05:37:00,56.6,54.6,30.14,ESE,120,0.0,0.0,93,0.00,,---,0.00,VWS V13.01,2015-05-05 09:37:00,
2015-05-05 05:42:00,56.5,54.5,30.14,ESE,120,0.0,0.0,93,0.00,,---,0.00,VWS V13.01,2015-05-05 09:42:00,
2015-05-05 05:47:00,56.4,54.4,30.15,ESE,120,0.0,0.0,93,0.00,,---,0.00,VWS V13.01,2015-05-05 09:47:00,
2015-05-05 05:52:00,56.3,54.3,30.14,ESE,120,0.0,0.0,93,0.00,,---,0.00,VWS V13.01,2015-05-05 09:52:00,
2015-05-05 05:57:00,56.2,54.2,30.15,ESE,120,0.0,0.0,93,0.00,,---,0.00,VWS V13.01,2015-05-05 09:57:00,
2015-05-05 06:02:00,56.1,54.1,30.15,ESE,120,0.0,0.0,93,0.00,,---,0.00,VWS V13.01,2015-05-05 10:02:00,
2015-05-05 06:07:00,56.1,54.1,30.15,ESE,120,0.0,0.0,93,0.00,,---,0.00,VWS V13.01,2015-05-05 10:07:00,
2015-05-05 06:12:00,56.3,54.0,30.15,ESE,120,0.0,0.0,92,0.00,,---,0.00,VWS V13.01,2015-05-05 10:12:00,
2015-05-05 06:17:00,56.2,54.2,30.15,ESE,120,0.0,0.0,93,0.00,,---,0.00,VWS V13.01,2015-05-05 10:17:00,
2015-05-05 06:22:00,56.0,54.0,30.16,ESE,120,0.0,0.0,93,0.00,,---,0.00,VWS V13.01,2015-05-05 10:22:00,
2015-05-05 06:27:00,56.0,53.7,30.16,ESE,120,0.0,0.0,92,0.00,,---,0.00,VWS V13.01,2015-05-05 10:27:00,
2015-05-05 06:32:00,55.9,53.9,30.16,ESE,120,0.0,0.0,93,0.00,,---,0.00,VWS V13.01,2015-05-05 10:32:00,
2015-05-05 06:37:00,55.9,53.6,30.16,ESE,120,0.0,0.0,92,0.00,,---,0.00,VWS V13.01,2015-05-05 10:37:00,
2015-05-05 06:42:00,56.0,53.7,30.16,ESE,120,0.0,0.0,92,0.00,,---,0.00,VWS V13.01,2015-05-05 10:42:00,
2015-05-05 06:47:00,56.0,53.7,30.17,ESE,120,0.0,0.0,92,0.00,,---,0.00,VWS V13.01,2015-05-05 10:47:00,
2015-05-05 06:52:00,56.0,53.7,30.17,ESE,120,0.0,0.0,92,0.00,,---,0.00,VWS V13.01,2015-05-05 10:52:00,
2015-05-05 06:57:00,56.0,53.7,30.17,ESE,120,0.0,0.0,92,0.00,,---,0.00,VWS V13.01,2015-05-05 10:57:00,
2015-05-05 07:02:00,56.0,53.7,30.17,ESE,120,0.0,0.0,92,0.00,,---,0.00,VWS V13.01,2015-05-05 11:02:00,
2015-05-05 07:07:00,56.2,53.9,30.17,ESE,120,0.0,0.0,92,0.00,,---,0.00,VWS V13.01,2015-05-05 11:07:00,
2015-05-05 07:12:00,56.1,53.8,30.18,ESE,120,0.0,0.0,92,0.00,,---,0.00,VWS V13.01,2015-05-05 11:12:00,
2015-05-05 07:17:00,56.1,53.8,30.18,ESE,120,0.0,0.0,92,0.00,,---,0.00,VWS V13.01,2015-05-05 11:17:00,
2015-05-05 07:22:00,56.4,54.1,30.18,ESE,121,0.0,0.0,92,0.00,,---,0.00,VWS V13.01,2015-05-05 11:22:00,
2015-05-05 07:27:00,56.5,54.2,30.18,ESE,121,0.0,0.0,92,0.00,,---,0.00,VWS V13.01,2015-05-05 11:27:00,
2015-05-05 07:32:00,56.6,54.3,30.18,ESE,121,0.0,0.0,92,0.00,,---,0.00,VWS V13.01,2015-05-05 11:32:00,
2015-05-05 07:37:00,56.8,54.5,30.19,ESE,121,0.0,0.0,92,0.00,,---,0.00,VWS V13.01,2015-05-05 11:37:00,
2015-05-05 07:42:00,56.8,54.5,30.19,ESE,121,0.0,0.0,92,0.00,,---,0.00,VWS V13.01,2015-05-05 11:42:00,
2015-05-05 07:47:00,56.9,54.6,30.19,ESE,121,0.0,0.0,92,0.00,,---,0.00,VWS V13.01,2015-05-05 11:47:00,
2015-05-05 07:52:00,57.1,54.8,30.19,ESE,121,0.0,0.0,92,0.00,,---,0.00,VWS V13.01,2015-05-05 11:52:00,
2015-05-05 07:57:00,57.2,54.9,30.19,ESE,121,0.0,0.0,92,0.00,,---,0.00,VWS V13.01,2015-05-05 11:57:00,
2015-05-05 08:02:00,57.4,55.1,30.20,ESE,121,0.0,0.0,92,0.00,,---,0.00,VWS V13.01,2015-05-05 12:02:00,
2015-05-05 08:07:00,57.6,55.3,30.19,ESE,121,0.0,0.0,92,0.00,,---,0.00,VWS V13.01,2015-05-05 12:07:00,
2015-05-05 08:12:00,57.9,55.3,30.20,ESE,121,0.0,0.0,91,0.00,,---,0.00,VWS V13.01,2015-05-05 12:12:00,
2015-05-05 08:17:00,58.2,55.6,30.20,ESE,121,0.0,0.0,91,0.00,,---,0.00,VWS V13.01,2015-05-05 12:17:00,